Overview Statistics Trail Chart Weather Telemetry Raw packets
 

This is the latest recevied weather packets stored in our database for station/object KC1BRV. If no packets are shown the sender has not sent any weather packets the latest 10 day(s).

<< 101 102 103 104 105 106 107 >>
Time Temp. Humidity Pressure Rain* Wind** Luminosity Snow
1787857581 25.56° C 63% 1019 hPa 0 mm - 218 W/m² -
1787857276 25.56° C 63% 1019 hPa 0 mm - 246 W/m² -
1787856974 26.11° C 60% 1019 hPa 0 mm - 242 W/m² -
1787856669 25.56° C 61% 1019 hPa 0 mm - 270 W/m² -
1787856369 25.56° C 60% 1018.8 hPa 0 mm - 291 W/m² -
1787856064 25.56° C 61% 1019 hPa 0 mm - 276 W/m² -
1787855763 26.11° C 61% 1019 hPa 0 mm - 230 W/m² -
1787855459 26.11° C 59% 1018.7 hPa 0 mm - 252 W/m² -
1787855155 26.67° C 55% 1018.9 hPa 0 mm - 336 W/m² -
1787854850 26.67° C 58% 1018.8 hPa 0 mm - 384 W/m² -
1787854549 27.22° C 56% 1018.6 hPa 0 mm - 439 W/m² -
1787854244 27.22° C 54% 1018.6 hPa 0 mm - 370 W/m² -
1787853944 27.22° C 55% 1018.5 hPa 0 mm - 453 W/m² -
1787853638 27.78° C 54% 1018.4 hPa 0 mm - 510 W/m² -
1787853337 27.78° C 54% 1018.3 hPa 0 mm - 479 W/m² -
1787853027 27.78° C 54% 1018.5 hPa 0 mm - 567 W/m² -
1787852727 28.33° C 56% 1018.6 hPa 0 mm - 618 W/m² -
1787852427 27.78° C 60% 1018.3 hPa 0 mm - 662 W/m² -
1787852126 27.78° C 59% 1018.5 hPa 0 mm - 676 W/m² -
1787851821 27.78° C 59% 1018.7 hPa 0 mm - 718 W/m² -
1787851515 27.78° C 58% 1018.9 hPa 0 mm - 667 W/m² -
1787851215 27.78° C 57% 1018.8 hPa 0 mm - 736 W/m² -
1787850910 27.78° C 56% 1019.1 hPa 0 mm - 726 W/m² -
1787850607 27.78° C 58% 1019.1 hPa 0 mm - 701 W/m² -
1787850307 27.78° C 56% 1018.9 hPa 0 mm - 701 W/m² -

* Rain latest hour (hover to see other rain measurements)
** Current wind speed in m/s (hover to see current wind gust speed)